www.pogodaiklimat.ru

Погода и климат >> Архив погоды >> Лаос >> Удомсай


ПОГОДА в Удомсае

  • Прогноз погоды в Удомсае
  • Монитор погоды в Удомсае

АРХИВ ПОГОДЫ в Удомсае

Время (UTC), дата Ветер
(напр.,м/с)
 
Видим.   Явления Облачность Т
(С)
Тd
(С)
f
(%)
Тe
(С)
Тes
(С)
Комфортность P
(гПа)
Po
(гПа)
Тmin
(С)
Tmax
(С)
R
(мм)
R24
(мм)
S
(см)
00 18.03 штиль 0 2000 м дымка 3/3 300 м
[Cu hum]
+15.6 +14.9 96 +15 +16 1013.3 938.8 +14.0
03 18.03 СЗ 1 5000 м дымка {туман} ясно +21.5 +16.6 74 +25 +41 комфорт 1013.3 940.4
06 18.03 ЮЗ 3 6000 м дым {туман} 6/6 300 м
[Cu med, cong]
+31.5 +18.4 46 +36 +43 очень
душно
1007.5 937.4
09 18.03 З 1 6000 м дым {туман} 5/5 300 м
[Cu med, cong]
+32.5 +17.7 41 +36 +40 очень
душно
1004.0 934.2
12 18.03 В 1 5000 м дым {туман} 4/4 300 м
[Cu med, cong]
+25.5 +19.3 69 +31 +31 очень
душно
1006.1 934.6 +33.0
03 19.03 Ю 1 6000 м дымка {туман} 6/6 300 м
[Cu med, cong]
+23.0 +18.9 78 +29 +36 очень
душно
1009.8 937.6
06 19.03 ЮЗ 5 7000 м мгла {туман} 6/6 300 м
[Cu med, cong]
+30.0 +13.2 36 +31 +35 жарко 1005.5 935.1
09 19.03 З 4 8000 м 6/6 300 м
[Cu med, cong]
+31.5 +13.6 34 +33 +34 жарко 1001.7 932.0
12 19.03 ЮЗ 2 5000 м дым {туман} ясно +27.0 +18.4 59 +32 +32 очень
душно
1004.9 933.7 +32.5
00 20.03 штиль 0 700 м туман ?/? +16.9 +16.2 96 +17 +17 1010.5 936.8 +15.0
03 20.03 ЮЗ 1 6000 м дымка {туман} ясно +23.0 +17.4 71 +28 +45 душно 1009.9 937.7
06 20.03 СЗ 4 8000 м 4/4 300 м
[Cu med, cong]
+32.0 +11.5 29 +32 +40 жарко 1004.8 934.8
09 20.03 З 3 7000 м мгла {туман} 5/5 300 м
[Cu med, cong]
+32.5 +9.8 25 +32 +34 жарко 1002.1 932.6
12 20.03 ЮВ 1 5000 м мгла {туман} 5/5 300 м
[Cu med, cong]
+27.0 +15.6 50 +30 +30 душно 1004.7 933.5 +33.5
00 21.03 Ю 1 3000 м дымка 4/4 300 м
[Cu hum]
+15.5 +15.0 97 +16 +17 1010.6 936.5 +14.0
03 21.03 ЮВ 1 6000 м дым {туман} ясно +23.4 +15.7 62 +28 +44 душно 1010.7 938.3
06 21.03 ЮЗ 4 7000 м дым {туман} 3/3 300 м
[Cu hum]
+32.4 +10.2 26 +32 +41 жарко 1005.7 935.9
09 21.03 З 4 9000 м дым {туман} ясно +32.5 +8.4 23 +31 +35 жарко 1002.3 992.8
12 21.03 З 2 6000 м дым {туман} ясно +26.9 +13.9 45 +29 +29 жарко 1004.8 933.7 +33.5
00 22.03 СЗ 1 1000 м дымка ясно +13.2 +12.3 94 +13 +14 1011.4 936.6 +11.7
09 22.03 З 1 6000 м мгла {туман} 4/4 300 м
[Cu med, cong]
+31.8 +9.2 25 +31 +35 жарко 1003.2 933.1
12 22.03 З 1 4000 м дым {туман} ясно +24.5 +14.4 53 +27 +27 жарко 1006.3 934.5 +32.5
00 23.03 СЗ 1 2000 м дымка ясно +13.5 +12.6 94 +14 +15 1013.9 938.3 +11.5
03 23.03 ЮЗ 1 3000 м дым {туман} ясно +19.4 +14.2 72 +22 +39 комфорт 1013.4 940.0
06 23.03 З 3 6000 м дым {туман} ясно +30.4 +27.8 86 +50 +66 опасность
перегрева
1007.5 937.1
09 23.03 СЗ 2 7000 м мгла {туман} ясно +32.2 +6.5 20 +30 +36 жарко 1003.9 933.9
12 23.03 ЮЗ 1 6000 м мгла {туман} ясно +24.7 +12.4 46 +26 +26 жарко 1006.8 935.0 +33.0
00 24.03 штиль 0 2000 м дымка 8/0 600 м
[Ac trans]
+14.4 +13.1 92 +14 +15 1012.0 937.6 +12.6
03 24.03 ЮЗ 1 4000 м дымка {туман} 8/0 300 м
[Ac und]
+19.0 +13.7 71 +21 +29 комфорт 1012.3 938.7
06 24.03 З 1 5000 м мгла {туман} ясно +28.0 +15.2 46 +31 +53 опасность
солнечного
удара
1006.1 935.2
09 24.03 С 1 5000 м мгла {туман} 6/6 300 м
[Cu med, cong]
+30.5 +19.0 50 +36 +39 очень
душно
1002.3 932.4
12 24.03 З 1 4000 м мгла {туман} 4/4 300 м
[Cu med, cong]
+25.0 +19.6 72 +30 +30 душно 1005.2 933.5 +31.0

 

Местоположение метеостанции Удомсай (Лаос): широта 20.68 долгота 101.99 высота над уровнем моря 550 м.

В архиве по умолчанию представлена погода в Удомсае за последнюю неделю. Архивные данные за месяц целиком и за предыдущие месяцы, начиная с января 2011 года, Вы можете получить, выбрав интересующий диапазон дат из раскрывающегося списка и нажав кнопку "Ввод!".


*Определитесь, кто Вы:
робот инопланетянин человек

Внимание! Время в таблицах - всемирное. Для получения местного времени необходимо прибавить поправку, которая равна 7 ч.

Смотрите также архив погоды в соседних городах и на ближайших метеорологических станциях:

Погода в Луангнамтха (Лаос) (68 км)
Погода в Луанг-Прабанге (Лаос) (89 км)
Погода в Менгла (Юньнань, Китай) (101 км)
Погода в Боуннеуа (Лаос) (108 км)
Погода в Сайнябули (Лаос) (162 км)
Погода в Плейн оф Джарс (Лаос) (180 км)
Погода в Тун Чанг (Таиланд) (182 км)
Погода в Цзинхуне (Юньнань, Китай) (193 км)
Погода в Шонле (Вьетнам) (211 км)
Погода в Та Ванг Па (Таиланд) (214 км)

Пояснения к столбцам:

Ветер - указаны скорость ветра в м/с - средняя за 10 мин, порывы в срок и между сроками (в фигурных скобках) и направление, откуда дует ветер: С - северный, СВ - северо-восточный, В - восточный, ЮВ - юго-восточный, Ю - южный, ЮЗ - юго-западный, З - западный, СЗ - северо-западный.
Видимость - горизонтальная дальность видимости в метрах или километрах. При видимости от 1 до 10 км при отсутствии осадков обычно наблюдается дымка, при ухудшении видимости до 1 км и менее - туман. В сухую погоду видимость может ухудшаться дымом, пылью или мглою.
Явления - указаны атмосферные явления, наблюдавшиеся в срок или в последний час перед сроком; фигурными скобками обозначены явления, наблюдавшиеся между сроками (за 1-3 часа до срока); квадратными скобками обозначены град или гололедные отложения с указанием их диаметра в мм.
Облачность - указаны через наклонную черту общая и нижняя облачность в баллах и высота нижней границы облаков в метрах; квадратными скобками обозначены формы облаков: Ci - перистые, Cs - перисто-слоистые, Cc - перисто-кучевые, Ac - высококучевые, As - высокослоистые, Sc - слоисто-кучевые, Ns - слоисто-дождевые, Cu - кучевые, Cb - кучево-дождевые. Подробнее классификацию облаков см. в Атласе облаков (PDF).
T - Температура воздуха - температура, измеренная на высоте 2 м над землей.
Td - Температура точки росы - температура, при понижении до которой содержащийся в воздухе водяной пар достигнет насыщения.
f - Относительная влажность воздуха - влажноcть воздуха, измеренная на высоте 2 м над землей.
Te - Эффективная температура - температура, которую ощущает одетый по сезону человек в тени. Характеристика душности погоды. При расчете учитывается влияние влажности воздуха и скорости ветра на теплоощущения человека.
Tes - Эффективная температура на солнце - температура, которую ощущает человек, с поправкой на солнечный нагрев. Характеристика знойности погоды. Зависит от высоты солнца над горизонтом, облачности и скорости ветра. Ночью, в пасмурную погоду, а также при ветре 12 м/с и более поправка равна нулю.
P - Атмосферное давление - приведенное к уровню моря атмосферное давление.
Po - Атмосферное давление - измеренное на уровне метеостанции атмосферное давление.
Tmin - Минимальная температура - минимум температуры воздуха на высоте 2 м над землей.
Tmax - Максимальная температура - максимум температуры воздуха на высоте 2 м над землей.
R - Количество осадков - Количество выпавших осадков за период времени, мм. При наведении курсора мыши на число - период времени, за который выпало указанное количество осадков.
R24 - Количество осадков - Количество выпавших осадков за 24 часа, мм.
S - Снежный покров - Высота снежного покрова, см. При наведении курсора мыши на число - состояние снежного покрова и степень покрытия местности в баллах.